Location: Summit Observatory
(39.5293°N, 75.7290°W)
Time: 19:31:30
(UTC-05:00)

XW-2F - Pass Details

Date: 27 October 2019
Orbit: 502 x 524 km, 97.5° (Epoch: 17 November)

Event Time Altitude Azimuth Distance (km) Brightness Sun altitude
Rises 18:57:59 0° 191° (S) 2,608 ? -10.3°
Reaches altitude 10° 19:00:17 10° 203° (SSW) 1,723 ? -10.8°
Maximum altitude 19:03:30 27° 263° (W) 991 ? -11.4°
Drops below altitude 10° 19:06:43 10° 324° (NW) 1,726 ? -12.0°
Sets 19:09:02 0° 336° (NNW) 2,613 ? -12.4°
